Weather History for Skagway, AK

Change the Weather History Date:

Tuesday, February 7, 2012

  Actual Average Record
Temperature  
Mean Temperature 36 °F -  
Max Temperature 37 °F 32 °F 46 °F (1968)
Min Temperature 34 °F 24 °F 0 °F (2008)
Degree Days  
Heating Degree Days 30    
Moisture  
Dew Point 20 °F    
Average Humidity 53    
Maximum Humidity 56    
Minimum Humidity 50    
Precipitation  
Precipitation 0.00 in - - ()
Sea Level Pressure  
Sea Level Pressure 29.96 in    
Wind  
Wind Speed 19 mph (NE)    
Max Wind Speed 25 mph    
Max Gust Speed 38 mph    
Visibility 10 miles    
Events      
Averages and records for this station are not official NWS values.
T = Trace of Precipitation, MM = Missing Value Source: NWS Daily Summary

Daily Weather History Graph

Daily Weather History Graph

Search for Another Location

Airport:

Trip Planner

Search our weather history database for the weather conditions in past years. The results will help you decide how hot, cold, wet, or windy it might be!

Date:

Astronomy

Feb. 07, 2012 Rise Set
Actual Time 7:58 AM AKST 4:33 PM AKST
Civil Twilight 7:13 AM AKST 5:18 PM AKST
Nautical Twilight 6:24 AM AKST 6:07 PM AKST
Astronomical Twilight 5:37 AM AKST 6:54 PM AKST
Moon 5:09 PM AKST (2/7) 7:21 AM AKST (2/7)
Length of Visible Light 10h 04m
Length of Day
8h 34m
Full, 100% of the Moon is Illuminated
Feb 7
Full
Feb 7
Full
Feb 14
Last Quarter
Feb 21
New
Feb 29
First Quarter

Hourly Weather History & Observations

Time (AKST) Temp. Windchill Dew Point Humidity Pressure Visibility Wind Dir Wind Speed Gust Speed Precip Events Conditions
12:53 AM 35.1 °F 23.8 °F 19.9 °F 54% 30.07 in 10.0 mi NE 20.7 mph 31.1 mph N/A   Overcast
1:53 AM 36.0 °F 24.7 °F 19.9 °F 52% 30.06 in 10.0 mi NE 21.9 mph 28.8 mph N/A   Overcast
2:53 AM 35.1 °F 25.2 °F 19.0 °F 52% 30.06 in 10.0 mi NE 16.1 mph 32.2 mph N/A   Clear
3:53 AM 34.0 °F 23.0 °F 19.0 °F 54% 30.04 in 10.0 mi NE 18.4 mph 33.4 mph N/A   Clear
4:53 AM 35.1 °F 24.1 °F 19.0 °F 52% 30.02 in 10.0 mi NE 19.6 mph 27.6 mph N/A   Clear
5:53 AM 34.0 °F 24.6 °F 19.0 °F 54% 30.02 in 10.0 mi NE 13.8 mph 27.6 mph N/A   Clear
6:53 AM 34.0 °F 23.8 °F 19.9 °F 56% 30.00 in 10.0 mi NNE 16.1 mph 21.9 mph N/A   Clear
7:53 AM 35.1 °F 26.4 °F 19.9 °F 54% 30.00 in 10.0 mi NNE 12.7 mph 20.7 mph N/A   Clear
8:53 AM 36.0 °F 26.7 °F 19.9 °F 52% 29.99 in 10.0 mi NNE 15.0 mph 26.5 mph N/A   Clear
9:53 AM 36.0 °F 25.0 °F 19.9 °F 52% 29.98 in 10.0 mi NE 20.7 mph 31.1 mph N/A   Partly Cloudy
10:53 AM 37.0 °F 26.4 °F 19.9 °F 50% 29.98 in 10.0 mi NNE 20.7 mph 31.1 mph N/A   Clear
11:53 AM 37.0 °F 26.2 °F 19.9 °F 50% 29.96 in 10.0 mi NE 21.9 mph 28.8 mph N/A   Clear
12:53 PM 37.0 °F 26.7 °F 21.0 °F 52% 29.95 in 10.0 mi NNE 19.6 mph 29.9 mph N/A   Clear
1:53 PM 37.0 °F 26.4 °F 21.0 °F 52% 29.94 in 10.0 mi NNE 20.7 mph 29.9 mph N/A   Overcast
2:53 PM 37.9 °F 28.5 °F 21.0 °F 51% 29.92 in 10.0 mi NNE 17.3 mph 25.3 mph N/A   Overcast
3:53 PM 37.0 °F 27.0 °F 21.9 °F 54% 29.92 in 10.0 mi NNE 18.4 mph - N/A   Scattered Clouds
4:53 PM 36.0 °F 24.4 °F 21.0 °F 55% 29.91 in 10.0 mi NE 23.0 mph 32.2 mph N/A   Overcast
5:53 PM 37.0 °F 27.7 °F 21.9 °F 54% 29.91 in 10.0 mi NNE 16.1 mph 27.6 mph N/A   Overcast
6:53 PM 37.0 °F 27.4 °F 21.0 °F 52% 29.91 in 10.0 mi NNE 17.3 mph 28.8 mph N/A   Overcast
7:53 PM 37.0 °F 26.7 °F 21.0 °F 52% 29.91 in 10.0 mi NE 19.6 mph 32.2 mph N/A   Mostly Cloudy
8:53 PM 37.0 °F 26.4 °F 21.0 °F 52% 29.91 in 10.0 mi NNE 20.7 mph 36.8 mph N/A   Partly Cloudy
9:53 PM 37.0 °F 28.1 °F 21.0 °F 52% 29.91 in 10.0 mi NE 15.0 mph 25.3 mph N/A   Overcast
10:53 PM 37.0 °F 25.9 °F 21.0 °F 52% 29.91 in 10.0 mi NE 23.0 mph 34.5 mph N/A   Scattered Clouds
11:53 PM 36.0 °F 23.9 °F 21.0 °F 55% 29.92 in 10.0 mi NE 25.3 mph 38.0 mph N/A   Partly Cloudy